Weather in Kosh-Dyobyo

Kyrgyzstan     41°05′06″N   74°15′21″E
temp.,
°C
wind,
m/s
gust,
m/s
humid.,
%
clouds,
%
prec.,
mm/h
press.,
hPa
HPBL,
m
12 april, mon
mon1200:00−3sse44680 0.1 102364
03:00−4sse44590 0.0 102358
06:00−4sse44580 0.0 102554
09:000sse33490 0.0 1022215
12:00+4ene22470 0.0 1020773
15:00+6nne124517 0.0 10181366
18:00+6sw024817 0.0 1019845
21:00+1sse33645 0.3 102250
13 april, tue
tue1300:000sse44640 0.3 102363
03:00−1sse4458100 0.0 102361
06:00−1sse4456100 0.0 102368
09:00+2se3349100 0.0 1022255
12:00+5ese2350100 0.0 1020775
15:00+5s2255100 0.0 10201015
18:00+4se016160 0.2 1021481
21:00+2s226898 0.0 102351
14 april, wed
wed1400:000sse33705 0.0 102448
03:00−1sse33691 0.0 102252
06:00−1sse336632 0.0 102345
09:00+2se22520 0.0 1022296
12:00+6ene124343 0.0 1019891
15:00+8e1239100 0.0 10171437
18:00+7s114573 0.0 1017854
21:00+3sse3358100 0.1 102058
15 april, thu
thu1500:00+2sse445997 0.1 101970
03:00+1sse446096 0.0 101973
06:000sse446313 0.0 101971
09:00+4sse334843 0.0 1019237
12:00+8ese213695 0.0 1016925
15:00+10se12315 0.0 10141792
18:00+9sse3234100 0.0 10141131
21:00+5sse4451100 0.0 101684
16 april, fri
fri1600:00+3sse4453100 0.0 101566
03:00+2sse4451100 0.0 101557
06:00+2s335675 0.0 101552
09:00+5s2245100 0.0 1014269
12:00+7wsw2245100 0.0 10131334
15:00+7wsw2254100 0.3 10131220
18:00+5wsw1275100 1.2 1015656
21:00+4sw3380100 1.4 1017407